Weather History for KLAR - July, 2013

Change the Weather History Date:

Monday, July 1, 2013

  Actual Average Record
Temperature  
Mean Temperature 61 °F 62 °F  
Max Temperature 76 °F 78 °F 93 °F (2002)
Min Temperature 46 °F 46 °F 30 °F (1968)
Degree Days  
Heating Degree Days 4 4  
Month to date heating degree days 4 4  
Since 1 June heating degree days 107 245  
Since 1 July heating degree days 4 4  
Cooling Degree Days 0 1  
Month to date cooling degree days 0 1  
Year to date cooling degree days 36 8  
Since 1 June cooling degree days 36 8  
Growing Degree Days 10 (Base 50)    
Moisture  
Dew Point 48 °F    
Average Humidity 67    
Maximum Humidity 100    
Minimum Humidity 33    
Precipitation  
Precipitation 0.08 in 0.04 in 0.27 in (1966)
Month to date precipitation 0.08 0.04  
Year to date precipitation 3.49 5.53  
Sea Level Pressure  
Sea Level Pressure 30.14 in    
Wind  
Wind Speed 8 mph (ESE)    
Max Wind Speed 21 mph    
Max Gust Speed 26 mph    
Visibility 10 miles    
Events Rain , Thunderstorm    
T = Trace of Precipitation, MM = Missing Value Source: NWS Daily Summary

Daily Weather History Graph

Daily Weather History Graph

Search for Another Location

Airport or City:

Trip Planner

Search our weather history database for the weather conditions in past years. The results will help you decide how hot, cold, wet, or windy it might be!

Date:

Astronomy

Jul. 01, 2013 Rise Set
Actual Time 5:33 AM MDT 8:39 PM MDT
Civil Twilight 4:59 AM MDT 9:13 PM MDT
Nautical Twilight 4:16 AM MDT 9:56 PM MDT
Astronomical Twilight 3:25 AM MDT 10:47 PM MDT
Moon 1:07 AM MDT (7/1) 2:55 PM MDT (7/1)
Length of Visible Light 16h 13m
Length of Day
15h 06m
Waning Crescent, 35% of the Moon is Illuminated
Jul 1
Waning Crescent
Jul 8
New
Jul 15
First Quarter
Jul 22
Full
Jul 29
Last Quarter

Hourly Weather History & Observations

Time (MDT) Temp. Dew Point Humidity Pressure Visibility Wind Dir Wind Speed Gust Speed Precip Events Conditions
12:53 AM 53.1 °F 50.0 °F 89% 30.06 in 10.0 mi South 9.2 mph - N/A   Clear
1:53 AM 52.0 °F 48.0 °F 86% 30.06 in 10.0 mi SSE 6.9 mph - N/A   Clear
2:53 AM 50.0 °F 48.0 °F 93% 30.06 in 10.0 mi SSE 6.9 mph - N/A   Clear
3:53 AM 48.9 °F 46.9 °F 93% 30.07 in 10.0 mi SSW 8.1 mph - N/A   Clear
4:53 AM 46.9 °F 46.0 °F 97% 30.11 in 5.0 mi SSW 3.5 mph - N/A   Clear
5:53 AM 48.0 °F 46.9 °F 96% 30.15 in 10.0 mi South 6.9 mph - N/A   Clear
6:53 AM 50.0 °F 48.0 °F 93% 30.14 in 10.0 mi South 4.6 mph - N/A   Clear
7:53 AM 55.0 °F 50.0 °F 83% 30.14 in 10.0 mi SSW 3.5 mph - N/A   Clear
8:53 AM 61.0 °F 50.0 °F 67% 30.13 in 10.0 mi Calm Calm - N/A   Clear
9:53 AM 66.9 °F 50.0 °F 54% 30.11 in 10.0 mi Calm Calm - N/A   Clear
10:53 AM 71.1 °F 48.0 °F 44% 30.09 in 10.0 mi North 5.8 mph - N/A   Clear
11:32 AM 71.6 °F 46.4 °F 41% 30.39 in - NNW 5.8 mph - N/A Thunderstorm Thunderstorm
11:53 AM 68.0 °F 46.9 °F 47% 30.08 in - East 6.9 mph - N/A Thunderstorm Thunderstorm
12:53 PM 64.0 °F 54.0 °F 70% 30.12 in 10.0 mi East 5.8 mph - 0.08 in Rain , Thunderstorm Light Thunderstorms and Rain
1:11 PM 64.4 °F 48.2 °F 56% 30.39 in 10.0 mi Variable 6.9 mph - 0.00 in   Mostly Cloudy
1:35 PM 66.2 °F 51.8 °F 60% 30.38 in 10.0 mi ENE 18.4 mph 26.5 mph 0.00 in Thunderstorm Partly Cloudy
1:50 PM 68.0 °F 51.8 °F 56% 30.38 in 10.0 mi NE 13.8 mph - 0.00 in   Scattered Clouds
1:53 PM 68.0 °F 51.1 °F 55% 30.09 in 10.0 mi ENE 12.7 mph - 0.00 in   Scattered Clouds
2:53 PM 71.1 °F 48.9 °F 45% 30.08 in 10.0 mi ENE 13.8 mph 17.3 mph N/A   Mostly Cloudy
3:53 PM 73.9 °F 46.0 °F 37% 30.07 in 10.0 mi NNE 11.5 mph 19.6 mph N/A   Mostly Cloudy
4:53 PM 73.0 °F 44.1 °F 35% 30.09 in 10.0 mi ENE 15.0 mph 20.7 mph N/A   Partly Cloudy
5:53 PM 73.9 °F 42.1 °F 32% 30.07 in 10.0 mi ENE 11.5 mph - N/A   Scattered Clouds
6:53 PM 72.0 °F 41.0 °F 33% 30.06 in 10.0 mi NNE 9.2 mph - N/A   Clear
7:53 PM 66.0 °F 50.0 °F 56% 30.08 in 10.0 mi SSE 12.7 mph - N/A   Clear
8:53 PM 60.1 °F 52.0 °F 75% 30.09 in 10.0 mi SE 8.1 mph - N/A   Clear
9:53 PM 55.9 °F 48.0 °F 75% 30.10 in 10.0 mi SE 13.8 mph - N/A   Clear
10:53 PM 55.0 °F 50.0 °F 83% 30.10 in 10.0 mi SSE 15.0 mph - N/A   Clear
11:53 PM 53.1 °F 50.0 °F 89% 30.11 in 8.0 mi South 8.1 mph - N/A   Mostly Cloudy